Tracking 21092 objects as of 14-Aug-2020
HD Live streaming from Space Station
objects crossing your sky now
Track the most recent launched group of Starlink satellites

CREW DRAGON DEMO-1 DEB

Track CREW DRAGON DEMO-1 DEB now!
10-day predictions


NORAD ID: 44064
Int'l Code: 2019-011B
Perigee: 375.1 km
Apogee: 378.9 km
Inclination: 51.6 °
Period: 91.9 minutes
Semi major axis: 6747 km
RCS: Unknown
Launch date: March 2, 2019
Source: United States (US)
Launch site: AIR FORCE EASTERN TEST RANGE (AFETR)

Note: This is SATELLITE DEBRIS
aabbcc
Your satellite tracking list
Your tracking list is empty




NASA's NSSDC Master Catalog

Two Line Element Set (TLE):
1 44064U 19011B   20226.78990244 +.00012815 +00000-0 +12713-3 0  9999
2 44064 051.6349 021.6843 0002855 275.6984 084.3686 15.66183288081892
Source of the keplerian elements: AFSPC